[[{"header":{"parameterUnit":"m.s-1","parameterCategory":1,"la1":30.2991,"la2":30.254,"lo1":-89.0895,"lo2":-89.0444,"dy":0.0017,"dx":0.0017,"nx":28,"ny":28,"refTime":"2023-10-16T09:00:00:Z","depth":0,"parameterNumber":2,"parameterNumberName":"U-component_of_WINDS"},"data":[0,0,0,0,0,0,0,0,0,0,0,0,0,0,0,0,0,0,0,0,0,0,0,0,0,0,0,0,0,0,0,0,0,0,0,0,0,0,0,0,0,0,0,0,0,0,0,0,0,0,0,0,0,0,0,0,0,0,1.7777,1.7777,0,1.7769,1.7768,1.7768,1.7757,1.7757,1.7757,1.7757,1.7747,1.7747,1.7747,0,0,0,0,0,0,0,0,0,0,0,0,0,1.7786,1.7786,1.7777,1.7777,1.7777,1.7769,1.7768,1.7768,1.7757,1.7757,1.7757,1.7757,1.7747,1.7747,1.7747,0,0,0,0,0,0,0,0,0,0,0,0,0,1.778,1.7786,1.7778,1.7771,1.777,1.7769,1.7768,1.7768,1.7757,1.7757,1.7757,1.7757,1.7747,1.7747,1.7747,1.7751,0,0,1.7746,1.7746,0,0,0,0,0,0,0,0,1.778,1.778,1.7772,1.7771,1.777,1.7764,1.7768,1.7762,1.7757,1.7762,1.7757,1.7757,1.7753,1.7752,1.7751,1.7751,1.775,1.7746,1.7746,1.7746,1.7746,0,0,0,0,0,0,0,1.7781,1.778,1.7774,1.7772,1.7771,1.7768,1.7767,1.7767,1.7759,1.7762,1.7761,1.776,1.7752,1.7751,1.7751,1.775,1.7746,1.7746,1.7746,1.7746,1.7754,1.7754,0,0,0,0,0,0,1.7782,1.7781,1.7774,1.7774,1.7775,1.7769,1.7767,1.7766,1.7759,1.7758,1.776,1.776,1.7752,1.7751,1.775,1.7755,1.7746,1.7746,1.7746,1.7754,1.7754,1.7754,0,0,0,0,0,0,1.7783,1.7782,1.7775,1.7777,1.7776,1.7769,1.7768,1.7766,1.7765,1.7758,1.7757,1.776,1.7751,1.7751,1.7751,1.7755,1.7746,1.7746,1.7753,1.7754,1.7754,1.7765,0,0,0,0,0,0,1.7783,1.7782,1.7783,1.7777,1.7776,1.7775,1.7768,1.7766,1.7765,1.7764,1.7758,1.7756,1.7751,1.7752,1.7751,1.7755,1.7746,1.7753,1.7754,1.7754,1.7765,1.7766,1.7767,0,0,0,0,0,1.7783,1.7786,1.7783,1.7783,1.7777,1.7776,1.7775,1.7769,1.7765,1.7766,1.7762,1.7757,1.7755,1.7752,1.7751,1.7755,1.7753,1.7753,1.7754,1.7764,1.7766,1.7767,0,0,0,0,0,0,1.7792,1.7785,1.7782,1.7783,1.778,1.7774,1.7775,1.7771,1.7769,1.7768,1.776,1.7759,1.7761,1.7758,1.7755,1.7759,1.7753,1.7754,1.7761,1.7762,1.7764,1.7764,1.7746,0,0,0,0,0,1.7795,1.7794,1.7788,1.7789,1.7788,1.7782,1.7781,1.7777,1.7774,1.7772,1.7768,1.7765,1.7764,1.7763,1.7761,1.7764,1.7763,1.7767,1.7768,1.7769,1.777,1.7772,1.7774,1.7757,1.7757,1.7757,0,0,1.7799,1.7795,1.7795,1.7791,1.7788,1.7788,1.7781,1.7781,1.7781,1.7772,1.7773,1.777,1.7766,1.7768,1.7769,1.7766,1.7774,1.777,1.7771,1.7771,1.7773,1.7775,1.7776,1.7757,1.7757,1.7757,0,0,1.7807,1.7804,1.7805,1.7803,1.7799,1.7795,1.7796,1.7791,1.7788,1.7789,1.7783,1.7783,1.7781,1.7779,1.7777,1.7787,1.7782,1.7787,1.7794,1.7796,1.7797,1.7799,1.7802,1.7804,1.7787,1.7787,1.7787,0,1.7812,1.7812,1.7806,1.7807,1.7806,1.7799,1.7801,1.7799,1.7795,1.7794,1.7791,1.7789,1.7786,1.7788,1.7791,1.779,1.779,1.7787,1.7798,1.7799,1.78,1.7803,1.7805,1.7788,1.7788,1.7788,1.7788,0,1.7819,1.7819,1.7821,1.7818,1.7817,1.7818,1.7813,1.7813,1.781,1.7807,1.7808,1.7805,1.7803,1.7803,1.7799,1.7805,1.7803,1.7799,1.7793,1.7802,1.7805,1.7807,1.7789,1.7788,1.7788,1.7788,0,0,1.7831,1.7826,1.7827,1.7826,1.7823,1.7822,1.7824,1.7823,1.7823,1.7821,1.7822,1.7822,1.7818,1.7817,1.7813,1.7815,1.7824,1.7811,1.781,1.7813,1.7831,1.7834,1.7835,1.7821,1.7821,1.7821,1.7831,0,1.7838,1.784,1.7836,1.7839,1.784,1.7834,1.7836,1.7834,1.7831,1.7832,1.7829,1.7829,1.7824,1.7823,1.7825,1.7822,1.7827,1.7821,1.7822,1.7822,1.7823,1.7837,1.784,1.7849,1.7832,1.7832,1.7833,0,1.7846,1.7846,1.7849,1.7847,1.7847,1.7848,1.7847,1.7847,1.7846,1.7844,1.7843,1.7839,1.7841,1.7836,1.7838,1.7835,1.7835,1.7834,1.7834,1.7834,1.7827,1.7837,1.7852,1.7853,1.7834,1.7834,1.7834,0,1.7855,1.7855,1.7857,1.7857,1.7854,1.7855,1.7854,1.7852,1.7852,1.7851,1.7851,1.7851,1.7851,1.7851,1.7847,1.7844,1.7851,1.7845,1.785,1.785,1.7851,1.785,1.7866,1.7851,1.7851,1.7851,1.7851,0,1.7863,1.7866,1.7861,1.7863,1.7866,1.7861,1.7864,1.7863,1.7861,1.7863,1.7858,1.7859,1.7855,1.7856,1.7853,1.7856,1.7856,1.7855,1.7854,1.7855,1.7855,1.7855,1.7854,1.7852,1.7852,1.7851,1.7851,0,1.7873,1.787,1.7872,1.787,1.7869,1.7872,1.787,1.7871,1.7869,1.7871,1.7871,1.7868,1.7869,1.7866,1.7866,1.7864,1.7869,1.7867,1.787,1.7869,1.7874,1.7874,1.7889,1.7892,1.7876,1.7876,1.7876,0,1.7878,1.788,1.7878,1.7879,1.7878,1.7879,1.788,1.7876,1.7877,1.7876,1.7878,1.7879,1.7879,1.7882,1.7879,1.788,1.7878,1.7884,1.7878,1.788,1.7878,1.7878,1.7879,1.7885,1.7885,1.7885,1.7885,0,1.7888,1.7887,1.7887,1.7888,1.7889,1.7889,1.7889,1.789,1.7886,1.7887,1.7889,1.7889,1.7891,1.7892,1.7892,1.7891,1.7888,1.7887,1.7888,1.7889,1.7891,1.789,1.7873,1.7887,1.7886,1.7886,1.7886,1.7886,1.7896,1.7897,1.7897,1.7898,1.7898,1.7898,1.79,1.7899,1.79,1.7901,1.7899,1.7901,1.7901,1.7901,1.7901,1.7903,1.79,1.7902,1.7902,1.7903,1.7903,1.7891,1.7903,1.7903,1.7903,1.7903,1.7903,0,1.7905,1.7905,1.7906,1.7907,1.7908,1.7905,1.7906,1.7907,1.7909,1.7909,1.791,1.7913,1.7914,1.7913,1.7914,1.7916,1.7915,1.7917,1.7916,1.7916,1.7905,1.7904,1.7918,1.7918,1.7918,1.7918,1.7918,1.7918,1.791,1.7914,1.7913,1.7916,1.7916,1.7918,1.7919,1.7919,1.792,1.7923,1.7924,1.7923,1.7923,1.7925,1.7927,1.7926,1.7927,1.793,1.7929,1.7918,1.7917,1.7915,1.7914,1.793,1.793,1.7939,1.7939,1.794]},{"header":{"parameterUnit":"m.s-1","parameterCategory":1,"la1":30.2991,"la2":30.254,"lo1":-89.0895,"lo2":-89.0444,"dy":0.0017,"dx":0.0017,"nx":28,"ny":28,"refTime":"2023-10-16T09:00:00:Z","depth":0,"parameterNumber":3,"parameterNumberName":"V-component_of_WINDS"},"data":[0,0,0,0,0,0,0,0,0,0,0,0,0,0,0,0,0,0,0,0,0,0,0,0,0,0,0,0,0,0,0,0,0,0,0,0,0,0,0,0,0,0,0,0,0,0,0,0,0,0,0,0,0,0,0,0,0,0,-6.7068,-6.7069,0,-6.7166,-6.7167,-6.7168,-6.7158,-6.7157,-6.7155,-6.7154,-6.7247,-6.7251,-6.7255,0,0,0,0,0,0,0,0,0,0,0,0,0,-6.687,-6.6873,-6.7068,-6.707,-6.7071,-6.7166,-6.7167,-6.7168,-6.7159,-6.7157,-6.7155,-6.7153,-6.7246,-6.725,-6.7255,0,0,0,0,0,0,0,0,0,0,0,0,0,-6.696,-6.6875,-6.7068,-6.7078,-6.7079,-6.7165,-6.7167,-6.7169,-6.7159,-6.7157,-6.7154,-6.7152,-6.7244,-6.725,-6.7256,-6.7337,0,0,-6.7274,-6.7276,0,0,0,0,0,0,0,0,-6.6955,-6.6967,-6.7075,-6.7077,-6.7079,-6.7148,-6.7131,-6.7225,-6.716,-6.7129,-6.7154,-6.7151,-6.7215,-6.7224,-6.7247,-6.7341,-6.7345,-6.7274,-6.7278,-6.728,-6.7282,0,0,0,0,0,0,0,-6.6949,-6.6963,-6.7107,-6.7076,-6.7079,-6.7075,-6.7086,-6.7149,-6.7183,-6.7131,-6.7131,-6.7143,-6.7216,-6.7241,-6.7249,-6.7346,-6.7274,-6.7279,-6.7283,-6.7285,-6.7514,-6.7517,0,0,0,0,0,0,-6.6941,-6.6958,-6.7104,-6.711,-6.7011,-6.7081,-6.7093,-6.7128,-6.7183,-6.7189,-6.7144,-6.7142,-6.7232,-6.7242,-6.7252,-6.7352,-6.728,-6.7285,-6.7289,-6.7512,-6.7515,-6.7518,0,0,0,0,0,0,-6.6937,-6.6954,-6.71,-6.7034,-6.7052,-6.7087,-6.7127,-6.7131,-6.7156,-6.7193,-6.7198,-6.7164,-6.7231,-6.7244,-6.7317,-6.7355,-6.7288,-6.7293,-6.7509,-6.7513,-6.7516,-6.7552,0,0,0,0,0,0,-6.6931,-6.6953,-6.6985,-6.7035,-6.7056,-6.7164,-6.7129,-6.7135,-6.7167,-6.7164,-6.7212,-6.7218,-6.723,-6.7308,-6.7322,-6.7362,-6.7298,-6.7505,-6.7511,-6.7515,-6.7547,-6.7556,-6.7564,0,0,0,0,0,-6.6924,-6.6988,-6.6986,-6.7004,-6.7097,-6.7166,-6.7178,-6.7192,-6.717,-6.7202,-6.7226,-6.7217,-6.7349,-6.7316,-6.7332,-6.7373,-6.7503,-6.7509,-6.7515,-6.7543,-6.7554,-6.7564,0,0,0,0,0,0,-6.6939,-6.6995,-6.6993,-6.7076,-6.7117,-6.7165,-6.7205,-6.7203,-6.7249,-6.7245,-6.7259,-6.727,-6.7344,-6.7365,-6.7328,-6.7456,-6.7423,-6.7432,-6.7439,-6.745,-6.7458,-6.7451,-6.7303,0,0,0,0,0,-6.6952,-6.7006,-6.7051,-6.712,-6.7141,-6.717,-6.7201,-6.7209,-6.725,-6.7267,-6.7296,-6.7336,-6.7386,-6.7419,-6.7467,-6.755,-6.7561,-6.7587,-6.7595,-6.7602,-6.761,-6.7657,-6.767,-6.7537,-6.7537,-6.7537,0,0,-6.6979,-6.7017,-6.7049,-6.7124,-6.7157,-6.7211,-6.7184,-6.7242,-6.7282,-6.7275,-6.7347,-6.737,-6.7415,-6.7494,-6.753,-6.7514,-6.7649,-6.761,-6.7615,-6.7619,-6.7665,-6.7677,-6.7688,-6.7541,-6.754,-6.754,0,0,-6.7057,-6.7091,-6.7153,-6.7187,-6.7238,-6.7257,-6.7272,-6.7321,-6.7337,-6.741,-6.7407,-6.7454,-6.754,-6.7573,-6.7601,-6.7695,-6.7688,-6.771,-6.7754,-6.78,-6.781,-6.782,-6.7854,-6.7866,-6.7718,-6.7718,-6.7718,0,-6.7084,-6.7167,-6.7184,-6.7245,-6.7278,-6.7277,-6.734,-6.7371,-6.7434,-6.7457,-6.7439,-6.755,-6.7579,-6.7667,-6.7691,-6.7713,-6.773,-6.7704,-6.7808,-6.7817,-6.7826,-6.7859,-6.7872,-6.772,-6.772,-6.772,-6.772,0,-6.7198,-6.7257,-6.73,-6.7365,-6.7403,-6.7464,-6.749,-6.7526,-6.7531,-6.7552,-6.7627,-6.7664,-6.7721,-6.7742,-6.7746,-6.7831,-6.782,-6.7805,-6.7772,-6.7841,-6.7872,-6.7885,-6.7724,-6.7723,-6.7722,-6.7722,0,0,-6.7286,-6.7362,-6.7378,-6.7409,-6.7466,-6.7511,-6.7572,-6.763,-6.7662,-6.7706,-6.7757,-6.7832,-6.782,-6.7852,-6.786,-6.79,-6.7974,-6.788,-6.7881,-6.7897,-6.8071,-6.8083,-6.8097,-6.797,-6.7973,-6.7975,-6.8068,0,-6.737,-6.7481,-6.75,-6.7597,-6.7651,-6.7652,-6.7706,-6.7746,-6.7768,-6.7816,-6.7839,-6.7893,-6.7872,-6.7891,-6.7931,-6.7957,-6.8009,-6.795,-6.8018,-6.802,-6.8007,-6.8113,-6.8125,-6.8211,-6.808,-6.8082,-6.8084,0,-6.7483,-6.7534,-6.7637,-6.769,-6.7714,-6.7762,-6.7818,-6.7865,-6.7911,-6.7924,-6.7961,-6.7965,-6.8028,-6.7993,-6.808,-6.804,-6.8069,-6.8085,-6.8089,-6.8096,-6.8056,-6.8124,-6.8239,-6.8252,-6.8103,-6.8101,-6.81,0,-6.7538,-6.7632,-6.7707,-6.7733,-6.7796,-6.783,-6.7857,-6.7902,-6.7937,-6.7985,-6.8008,-6.8062,-6.8092,-6.8134,-6.8152,-6.8125,-6.8238,-6.8204,-6.825,-6.825,-6.8274,-6.8272,-6.8396,-6.8292,-6.8292,-6.8291,-6.8291,0,-6.7631,-6.7694,-6.7733,-6.7779,-6.785,-6.7871,-6.794,-6.7966,-6.8006,-6.8057,-6.806,-6.8107,-6.8128,-6.8178,-6.8193,-6.8263,-6.8276,-6.8288,-6.8291,-6.8288,-6.8287,-6.8307,-6.8302,-6.8295,-6.8294,-6.8293,-6.8293,0,-6.7704,-6.7733,-6.7815,-6.7869,-6.7885,-6.7935,-6.7981,-6.8025,-6.8048,-6.8111,-6.8127,-6.8162,-6.8221,-6.8245,-6.8315,-6.8326,-6.8407,-6.8405,-6.8393,-6.8394,-6.8439,-6.8435,-6.8581,-6.8601,-6.8483,-6.8484,-6.8485,0,-6.7761,-6.7811,-6.7872,-6.7908,-6.7937,-6.7994,-6.8031,-6.8053,-6.8091,-6.8149,-6.8186,-6.8246,-6.8295,-6.839,-6.842,-6.8475,-6.8475,-6.8522,-6.8483,-6.8479,-6.8477,-6.8474,-6.8479,-6.8529,-6.8531,-6.8531,-6.8532,0,-6.786,-6.7873,-6.7927,-6.7988,-6.8032,-6.808,-6.8126,-6.8154,-6.8183,-6.8226,-6.8288,-6.8327,-6.8402,-6.8461,-6.8519,-6.8545,-6.8544,-6.8545,-6.8559,-6.8556,-6.8547,-6.8554,-6.8413,-6.8541,-6.854,-6.854,-6.8539,-6.8539,-6.7928,-6.7973,-6.8025,-6.8085,-6.8123,-6.8167,-6.8213,-6.8243,-6.8296,-6.8361,-6.837,-6.8437,-6.8483,-6.8561,-6.859,-6.8642,-6.863,-6.8649,-6.8654,-6.8659,-6.8663,-6.8539,-6.8652,-6.8652,-6.8652,-6.8652,-6.8652,0,-6.8028,-6.8062,-6.8118,-6.8185,-6.8233,-6.8231,-6.8283,-6.8322,-6.8382,-6.8427,-6.8477,-6.8549,-6.8608,-6.8644,-6.8703,-6.8738,-6.8739,-6.8752,-6.875,-6.8756,-6.867,-6.8653,-6.8751,-6.8751,-6.8751,-6.8751,-6.8751,-6.8751,-6.8086,-6.8163,-6.8183,-6.8278,-6.8311,-6.838,-6.841,-6.845,-6.8486,-6.8568,-6.8618,-6.8643,-6.8684,-6.8746,-6.88,-6.8809,-6.8831,-6.8846,-6.8854,-6.8772,-6.8762,-6.8752,-6.8736,-6.885,-6.885,-6.8936,-6.8937,-6.8937]}]]